Time,TemperatureF,DewpointF,PressureIn,WindDirection,WindDirectionDegrees,WindSpeedMPH,WindSpeedGustMPH,Humidity,HourlyPrecipIn,Conditions,Clouds,dailyrainin,SoftwareType,DateUTC
2013-02-24 00:01:00,19.0,15.0,29.99,WSW,249,0.0,0.0,85,0.00,,,0.01,,2013-02-24 06:01:00,
2013-02-24 00:11:00,19.0,15.0,29.99,WSW,249,0.0,0.0,85,0.00,,,0.01,,2013-02-24 06:11:00,
2013-02-24 00:21:00,18.0,14.0,29.99,WSW,249,0.0,0.0,85,0.00,,,0.01,,2013-02-24 06:21:00,
2013-02-24 00:31:00,18.0,15.0,29.99,WSW,249,0.0,0.0,86,0.00,,,0.01,,2013-02-24 06:31:00,
2013-02-24 00:42:00,18.0,15.0,29.99,WSW,249,0.0,0.0,86,0.00,,,0.01,,2013-02-24 06:42:00,
2013-02-24 00:52:00,18.0,15.0,30.00,WSW,249,0.0,0.0,86,0.00,,,0.01,,2013-02-24 06:52:00,
2013-02-24 01:01:00,18.0,15.0,30.01,WSW,249,0.0,1.0,86,0.00,,,0.01,,2013-02-24 07:01:00,
2013-02-24 01:12:00,18.0,15.0,30.01,WSW,249,0.0,1.0,86,0.00,,,0.01,,2013-02-24 07:12:00,
2013-02-24 01:21:00,18.0,15.0,30.01,WSW,249,0.0,0.0,86,0.00,,,0.01,,2013-02-24 07:21:00,
2013-02-24 01:32:00,18.0,15.0,30.01,WSW,249,0.0,1.0,86,0.00,,,0.01,,2013-02-24 07:32:00,
2013-02-24 01:42:00,18.0,15.0,30.01,WSW,249,0.0,1.0,86,0.00,,,0.01,,2013-02-24 07:42:00,
2013-02-24 01:51:00,18.0,15.0,30.02,WSW,249,0.0,2.0,86,0.00,,,0.01,,2013-02-24 07:51:00,
2013-02-24 02:01:00,18.0,15.0,30.01,WSW,249,0.0,1.0,86,0.00,,,0.01,,2013-02-24 08:01:00,
2013-02-24 02:11:00,18.0,15.0,30.01,WSW,249,0.0,1.0,86,0.00,,,0.01,,2013-02-24 08:11:00,
2013-02-24 02:22:00,17.0,14.0,30.02,WSW,249,0.0,0.0,86,0.00,,,0.01,,2013-02-24 08:22:00,
2013-02-24 02:31:00,17.0,14.0,30.02,WSW,249,0.0,0.0,86,0.00,,,0.01,,2013-02-24 08:31:00,
2013-02-24 02:42:00,17.0,14.0,30.02,WSW,249,0.0,0.0,86,0.00,,,0.01,,2013-02-24 08:42:00,
2013-02-24 02:53:00,17.0,14.0,30.02,WSW,249,0.0,1.0,86,0.00,,,0.01,,2013-02-24 08:53:00,
2013-02-24 03:01:00,16.0,13.0,30.02,WSW,249,0.0,0.0,86,0.00,,,0.01,,2013-02-24 09:01:00,
2013-02-24 03:11:00,16.0,13.0,30.02,WSW,249,0.0,0.0,86,0.00,,,0.01,,2013-02-24 09:11:00,
2013-02-24 03:21:00,16.0,13.0,30.01,WSW,249,0.0,1.0,87,0.00,,,0.01,,2013-02-24 09:21:00,
2013-02-24 03:31:00,16.0,13.0,30.01,WSW,249,0.0,1.0,87,0.00,,,0.01,,2013-02-24 09:31:00,
2013-02-24 03:42:00,16.0,13.0,30.01,WSW,249,0.0,1.0,87,0.00,,,0.01,,2013-02-24 09:42:00,
2013-02-24 03:51:00,15.0,12.0,30.02,WSW,249,0.0,0.0,88,0.00,,,0.01,,2013-02-24 09:51:00,
2013-02-24 04:01:00,15.0,12.0,30.02,WSW,249,0.0,0.0,88,0.00,,,0.01,,2013-02-24 10:01:00,
2013-02-24 04:11:00,15.0,12.0,30.02,WSW,249,0.0,0.0,88,0.00,,,0.01,,2013-02-24 10:11:00,
2013-02-24 04:21:00,15.0,12.0,30.02,WSW,249,0.0,0.0,87,0.00,,,0.01,,2013-02-24 10:21:00,
2013-02-24 04:32:00,14.0,11.0,30.03,WSW,249,0.0,1.0,86,0.00,,,0.01,,2013-02-24 10:32:00,
2013-02-24 04:42:00,14.0,11.0,30.03,WSW,249,0.0,1.0,86,0.00,,,0.01,,2013-02-24 10:42:00,
2013-02-24 04:52:00,13.0,10.0,30.03,WSW,249,0.0,1.0,87,0.00,,,0.01,,2013-02-24 10:52:00,
2013-02-24 05:01:00,13.0,10.0,30.04,WSW,249,0.0,1.0,88,0.00,,,0.01,,2013-02-24 11:01:00,
2013-02-24 05:11:00,13.0,10.0,30.04,WSW,249,0.0,1.0,88,0.00,,,0.01,,2013-02-24 11:11:00,
2013-02-24 05:21:00,13.0,10.0,30.05,WSW,249,0.0,0.0,88,0.00,,,0.01,,2013-02-24 11:21:00,
2013-02-24 05:32:00,13.0,10.0,30.06,WSW,249,0.0,1.0,89,0.00,,,0.01,,2013-02-24 11:32:00,
2013-02-24 05:41:00,13.0,10.0,30.06,WSW,249,0.0,1.0,89,0.00,,,0.01,,2013-02-24 11:41:00,
2013-02-24 05:53:00,13.0,10.0,30.07,WSW,249,0.0,1.0,88,0.00,,,0.01,,2013-02-24 11:53:00,
2013-02-24 06:01:00,12.0,9.0,30.07,WSW,249,0.0,1.0,88,0.00,,,0.01,,2013-02-24 12:01:00,
2013-02-24 06:11:00,12.0,9.0,30.07,WSW,249,0.0,1.0,88,0.00,,,0.01,,2013-02-24 12:11:00,
2013-02-24 06:22:00,12.0,9.0,30.06,WSW,249,0.0,2.0,88,0.00,,,0.01,,2013-02-24 12:22:00,
2013-02-24 06:32:00,12.0,9.0,30.07,WSW,249,0.0,2.0,88,0.00,,,0.01,,2013-02-24 12:32:00,
2013-02-24 06:46:00,12.0,9.0,30.07,WSW,249,0.0,2.0,88,0.00,,,0.01,,2013-02-24 12:46:00,
2013-02-24 06:56:00,12.0,9.0,30.07,WSW,249,0.0,2.0,88,0.00,,,0.01,,2013-02-24 12:56:00,
2013-02-24 07:09:00,11.0,8.0,30.08,WSW,249,0.0,1.0,88,0.00,,,0.01,,2013-02-24 13:09:00,
2013-02-24 07:16:00,11.0,8.0,30.08,WSW,249,0.0,1.0,88,0.00,,,0.01,,2013-02-24 13:16:00,
2013-02-24 07:26:00,11.0,8.0,30.08,WSW,249,0.0,1.0,88,0.00,,,0.01,,2013-02-24 13:26:00,
2013-02-24 07:33:00,12.0,9.0,30.09,WSW,249,0.0,0.0,89,0.00,,,0.01,,2013-02-24 13:33:00,
2013-02-24 07:44:00,12.0,9.0,30.09,WSW,249,0.0,0.0,89,0.00,,,0.01,,2013-02-24 13:44:00,
2013-02-24 07:55:00,14.0,11.0,30.09,WSW,249,0.0,2.0,88,0.00,,,0.01,,2013-02-24 13:55:00,
2013-02-24 08:03:00,16.0,13.0,30.10,WSW,249,0.0,1.0,87,0.00,,,0.01,,2013-02-24 14:03:00,
2013-02-24 08:13:00,16.0,13.0,30.10,WSW,249,0.0,1.0,87,0.00,,,0.01,,2013-02-24 14:13:00,
2013-02-24 08:24:00,18.0,15.0,30.11,WSW,249,0.0,0.0,86,0.00,,,0.01,,2013-02-24 14:24:00,
2013-02-24 09:02:00,22.0,18.0,30.13,SE,142,0.0,2.0,83,0.00,,,0.01,,2013-02-24 15:02:00,
2013-02-24 09:23:00,24.0,19.0,30.13,SE,141,1.0,2.0,81,0.00,,,0.01,,2013-02-24 15:23:00,
2013-02-24 09:32:00,24.0,18.0,30.13,SE,141,0.0,3.0,79,0.00,,,0.01,,2013-02-24 15:32:00,
2013-02-24 09:42:00,24.0,18.0,30.13,SE,141,0.0,3.0,79,0.00,,,0.01,,2013-02-24 15:42:00,
2013-02-24 09:53:00,25.0,19.0,30.12,SE,141,0.0,2.0,79,0.00,,,0.01,,2013-02-24 15:53:00,
2013-02-24 10:01:00,27.0,21.0,30.12,SE,142,1.0,3.0,78,0.00,,,0.01,,2013-02-24 16:01:00,
2013-02-24 10:11:00,27.0,21.0,30.12,SE,142,1.0,3.0,78,0.00,,,0.01,,2013-02-24 16:11:00,
2013-02-24 10:21:00,27.0,20.0,30.13,SE,135,0.0,3.0,76,0.00,,,0.01,,2013-02-24 16:21:00,
2013-02-24 10:32:00,29.0,21.0,30.12,SE,135,1.0,3.0,72,0.00,,,0.01,,2013-02-24 16:32:00,
2013-02-24 10:42:00,29.0,21.0,30.12,SE,135,1.0,3.0,72,0.00,,,0.01,,2013-02-24 16:42:00,
2013-02-24 10:52:00,29.0,21.0,30.13,SE,136,1.0,3.0,72,0.00,,,0.01,,2013-02-24 16:52:00,
2013-02-24 11:01:00,30.0,22.0,30.13,SE,136,1.0,4.0,73,0.00,,,0.01,,2013-02-24 17:01:00,
2013-02-24 11:11:00,30.0,22.0,30.13,SE,136,1.0,4.0,73,0.00,,,0.01,,2013-02-24 17:11:00,
2013-02-24 11:21:00,31.0,23.0,30.13,SE,124,1.0,4.0,72,0.00,,,0.01,,2013-02-24 17:21:00,
2013-02-24 11:32:00,31.0,23.0,30.13,SE,133,1.0,5.0,71,0.01,,,0.02,,2013-02-24 17:32:00,
2013-02-24 11:42:00,31.0,23.0,30.13,SE,133,1.0,5.0,71,0.01,,,0.02,,2013-02-24 17:42:00,
2013-02-24 11:53:00,31.0,22.0,30.13,SE,131,2.0,5.0,69,0.01,,,0.02,,2013-02-24 17:53:00,
2013-02-24 12:01:00,31.0,22.0,30.13,SE,132,3.0,6.0,69,0.01,,,0.02,,2013-02-24 18:01:00,
2013-02-24 12:11:00,31.0,22.0,30.13,SE,132,3.0,6.0,69,0.01,,,0.02,,2013-02-24 18:11:00,
2013-02-24 12:22:00,31.0,22.0,30.13,SE,126,3.0,6.0,70,0.01,,,0.02,,2013-02-24 18:22:00,
2013-02-24 12:32:00,31.0,22.0,30.13,SE,133,2.0,5.0,70,0.00,,,0.02,,2013-02-24 18:32:00,
2013-02-24 12:42:00,31.0,22.0,30.13,SE,133,2.0,5.0,70,0.00,,,0.02,,2013-02-24 18:42:00,
2013-02-24 12:52:00,31.0,22.0,30.13,SE,133,2.0,5.0,70,0.00,,,0.02,,2013-02-24 18:52:00,
2013-02-24 13:01:00,32.0,23.0,30.12,SE,125,2.0,6.0,70,0.00,,,0.02,,2013-02-24 19:01:00,
2013-02-24 13:11:00,32.0,23.0,30.12,SE,125,2.0,6.0,70,0.00,,,0.02,,2013-02-24 19:11:00,
2013-02-24 13:22:00,32.0,23.0,30.12,SE,137,3.0,5.0,69,0.00,,,0.02,,2013-02-24 19:22:00,
2013-02-24 13:32:00,32.0,23.0,30.12,SE,136,2.0,5.0,69,0.00,,,0.01,,2013-02-24 19:32:00,
2013-02-24 13:42:00,32.0,23.0,30.12,SE,136,2.0,5.0,69,0.00,,,0.01,,2013-02-24 19:42:00,
2013-02-24 13:52:00,33.0,24.0,30.12,SE,135,2.0,5.0,68,0.00,,,0.01,,2013-02-24 19:52:00,
2013-02-24 14:02:00,33.0,24.0,30.11,SE,144,2.0,5.0,68,0.00,,,0.01,,2013-02-24 20:02:00,
2013-02-24 14:11:00,33.0,24.0,30.11,SE,144,2.0,5.0,68,0.00,,,0.01,,2013-02-24 20:11:00,
2013-02-24 14:21:00,33.0,24.0,30.11,SE,132,2.0,5.0,68,0.00,,,0.01,,2013-02-24 20:21:00,
2013-02-24 14:32:00,34.0,25.0,30.11,SE,130,1.0,4.0,68,0.00,,,0.01,,2013-02-24 20:32:00,
2013-02-24 14:42:00,34.0,25.0,30.11,SE,130,1.0,4.0,68,0.00,,,0.01,,2013-02-24 20:42:00,
2013-02-24 14:52:00,34.0,24.0,30.11,SE,134,1.0,4.0,66,0.00,,,0.01,,2013-02-24 20:52:00,
2013-02-24 15:01:00,34.0,25.0,30.11,SE,146,0.0,3.0,69,0.00,,,0.01,,2013-02-24 21:01:00,
2013-02-24 15:11:00,34.0,25.0,30.11,SE,146,0.0,3.0,69,0.00,,,0.01,,2013-02-24 21:11:00,
2013-02-24 15:21:00,35.0,26.0,30.11,SE,139,0.0,3.0,68,0.00,,,0.01,,2013-02-24 21:21:00,
2013-02-24 15:32:00,35.0,25.0,30.11,South,170,0.0,3.0,67,0.00,,,0.01,,2013-02-24 21:32:00,
2013-02-24 15:42:00,35.0,25.0,30.11,South,170,0.0,3.0,67,0.00,,,0.01,,2013-02-24 21:42:00,
2013-02-24 15:52:00,35.0,25.0,30.11,SSE,148,0.0,3.0,66,0.00,,,0.01,,2013-02-24 21:52:00,
2013-02-24 16:01:00,35.0,24.0,30.11,SE,141,1.0,4.0,65,0.00,,,0.01,,2013-02-24 22:01:00,
2013-02-24 16:11:00,35.0,24.0,30.11,SE,141,1.0,4.0,65,0.00,,,0.01,,2013-02-24 22:11:00,
2013-02-24 16:21:00,35.0,24.0,30.11,SE,126,0.0,4.0,65,0.00,,,0.01,,2013-02-24 22:21:00,
2013-02-24 16:31:00,35.0,24.0,30.10,SE,136,0.0,5.0,65,0.00,,,0.01,,2013-02-24 22:31:00,
2013-02-24 16:41:00,35.0,24.0,30.10,SE,136,0.0,5.0,65,0.00,,,0.01,,2013-02-24 22:41:00,
2013-02-24 16:52:00,35.0,25.0,30.10,SE,128,0.0,3.0,66,0.00,,,0.01,,2013-02-24 22:52:00,
2013-02-24 17:02:00,35.0,25.0,30.10,SE,128,1.0,3.0,67,0.00,,,0.01,,2013-02-24 23:02:00,
2013-02-24 17:11:00,35.0,25.0,30.10,SE,128,1.0,3.0,67,0.00,,,0.01,,2013-02-24 23:11:00,
2013-02-24 17:21:00,35.0,26.0,30.10,SE,132,0.0,2.0,68,0.00,,,0.01,,2013-02-24 23:21:00,
2013-02-24 17:31:00,34.0,25.0,30.10,SE,132,1.0,2.0,70,0.00,,,0.01,,2013-02-24 23:31:00,
2013-02-24 17:42:00,34.0,25.0,30.10,SE,132,1.0,2.0,70,0.00,,,0.01,,2013-02-24 23:42:00,
2013-02-24 17:52:00,33.0,25.0,30.10,SE,132,0.0,1.0,72,0.00,,,0.01,,2013-02-24 23:52:00,
2013-02-24 18:01:00,32.0,25.0,30.10,SE,132,0.0,0.0,75,0.00,,,0.01,,2013-02-25 00:01:00,
2013-02-24 18:11:00,32.0,25.0,30.10,SE,132,0.0,0.0,75,0.00,,,0.01,,2013-02-25 00:11:00,
2013-02-24 18:21:00,32.0,25.0,30.10,SE,132,0.0,0.0,75,0.00,,,0.01,,2013-02-25 00:21:00,
2013-02-24 18:31:00,32.0,25.0,30.10,SE,132,0.0,0.0,75,0.00,,,0.01,,2013-02-25 00:31:00,
2013-02-24 18:42:00,32.0,25.0,30.10,SE,132,0.0,0.0,75,0.00,,,0.01,,2013-02-25 00:42:00,
2013-02-24 19:01:00,29.0,24.0,30.11,SE,132,0.0,2.0,81,0.00,,,0.01,,2013-02-25 01:01:00,
2013-02-24 19:11:00,29.0,24.0,30.11,SE,132,0.0,2.0,81,0.00,,,0.01,,2013-02-25 01:11:00,
2013-02-24 19:21:00,28.0,24.0,30.11,SE,132,0.0,1.0,83,0.00,,,0.01,,2013-02-25 01:21:00,
2013-02-24 19:31:00,28.0,24.0,30.12,SE,132,0.0,0.0,84,0.00,,,0.01,,2013-02-25 01:31:00,
2013-02-24 19:42:00,28.0,24.0,30.12,SE,132,0.0,0.0,84,0.00,,,0.01,,2013-02-25 01:42:00,
2013-02-24 19:52:00,28.0,24.0,30.12,SE,132,0.0,0.0,84,0.00,,,0.01,,2013-02-25 01:52:00,
2013-02-24 20:01:00,27.0,23.0,30.12,SE,132,0.0,1.0,85,0.00,,,0.01,,2013-02-25 02:01:00,
2013-02-24 20:11:00,27.0,23.0,30.12,SE,132,0.0,1.0,85,0.00,,,0.01,,2013-02-25 02:11:00,
2013-02-24 20:21:00,27.0,23.0,30.13,SE,132,0.0,1.0,85,0.00,,,0.01,,2013-02-25 02:21:00,
2013-02-24 20:31:00,27.0,23.0,30.12,SE,132,0.0,1.0,85,0.00,,,0.01,,2013-02-25 02:31:00,
2013-02-24 20:41:00,27.0,23.0,30.12,SE,132,0.0,1.0,85,0.00,,,0.01,,2013-02-25 02:41:00,
2013-02-24 20:52:00,26.0,22.0,30.12,SE,132,0.0,1.0,86,0.00,,,0.01,,2013-02-25 02:52:00,
2013-02-24 21:01:00,26.0,23.0,30.12,SE,132,0.0,2.0,87,0.00,,,0.01,,2013-02-25 03:01:00,
2013-02-24 21:11:00,26.0,23.0,30.12,SE,132,0.0,2.0,87,0.00,,,0.01,,2013-02-25 03:11:00,
2013-02-24 21:21:00,27.0,23.0,30.12,SE,132,0.0,2.0,86,0.00,,,0.01,,2013-02-25 03:21:00,
2013-02-24 21:31:00,27.0,23.0,30.13,SE,132,0.0,2.0,85,0.00,,,0.01,,2013-02-25 03:31:00,
2013-02-24 21:41:00,27.0,23.0,30.13,SE,132,0.0,2.0,85,0.00,,,0.01,,2013-02-25 03:41:00,
2013-02-24 21:52:00,27.0,23.0,30.13,SE,132,0.0,1.0,86,0.00,,,0.01,,2013-02-25 03:52:00,
2013-02-24 22:01:00,27.0,23.0,30.13,SE,132,0.0,1.0,86,0.00,,,0.01,,2013-02-25 04:01:00,
2013-02-24 22:11:00,27.0,23.0,30.13,SE,132,0.0,1.0,86,0.00,,,0.01,,2013-02-25 04:11:00,
2013-02-24 22:21:00,27.0,23.0,30.13,SE,132,0.0,1.0,86,0.00,,,0.01,,2013-02-25 04:21:00,
2013-02-24 22:31:00,26.0,22.0,30.13,SE,132,0.0,1.0,86,0.00,,,0.01,,2013-02-25 04:31:00,
2013-02-24 22:41:00,26.0,22.0,30.13,SE,132,0.0,1.0,86,0.00,,,0.01,,2013-02-25 04:41:00,
2013-02-24 22:52:00,26.0,22.0,30.13,SE,132,0.0,1.0,85,0.00,,,0.01,,2013-02-25 04:52:00,
2013-02-24 23:01:00,26.0,22.0,30.13,SE,132,0.0,1.0,85,0.00,,,0.01,,2013-02-25 05:01:00,
2013-02-24 23:11:00,26.0,22.0,30.13,SE,132,0.0,1.0,85,0.00,,,0.01,,2013-02-25 05:11:00,
2013-02-24 23:22:00,25.0,22.0,30.13,SE,132,0.0,1.0,87,0.00,,,0.01,,2013-02-25 05:22:00,
2013-02-24 23:31:00,25.0,22.0,30.13,SE,132,0.0,1.0,87,0.00,,,0.01,,2013-02-25 05:31:00,
2013-02-24 23:42:00,25.0,22.0,30.13,SE,132,0.0,1.0,87,0.00,,,0.01,,2013-02-25 05:42:00,
2013-02-24 23:52:00,25.0,22.0,30.13,SE,132,0.0,2.0,87,0.00,,,0.01,,2013-02-25 05:52:00,